Date String (YYYY-MM-DD hh:mm:ss) UTC,Instrument flags,Ambient pressure (hPa),Sample flow (lpm),Bypass flow (lpm),Sample temperature (°C),Ambient temperature (°C),ASC tube jacket temperature (°C),LED temperature (°C),Box temperature (°C),Sample RH (%),Span deviation,Mass concentration (μg/m³),Mass concentration (μg/m³),Mass concentration (μg/m³)
DateTimeUTC,F1_M11,P_M11,Q1_M11,Q2_M11,T1_M11,T2_M11,T3_M11,T4_M11,T5_M11,U1_M11,ZSPAN_M11,X0_M11,X2_M11,X1_M11
2022-05-14 14:00:00,,0828.4,5.02,0.00,29.5,28.5,00.0,38.4,31.1,07.6,0000.0,0008.99,0003.27,0001.82
2022-05-14 14:01:00,,0828.5,4.99,0.00,29.5,28.5,00.0,38.4,31.2,07.8,0000.0,0009.52,0003.29,0001.82
2022-05-14 14:02:00,,0828.5,5.01,0.00,29.5,28.5,00.0,38.4,31.2,07.4,0000.0,0009.91,0003.29,0001.81
2022-05-14 14:03:00,,0828.4,5.01,0.00,29.5,28.5,00.0,38.4,31.2,07.7,0000.0,0008.47,0003.33,0001.81
2022-05-14 14:04:00,,0828.4,5.00,0.00,29.5,28.5,00.0,38.4,31.2,07.7,0000.0,0008.50,0003.33,0001.81
2022-05-14 14:05:00,,0828.5,5.01,0.00,29.5,28.5,00.0,38.4,31.2,07.8,0000.0,0008.63,0003.31,0001.81
2022-05-14 14:06:00,,0828.6,5.01,0.00,29.5,28.5,00.0,38.4,31.2,07.7,0000.0,0008.62,0003.31,0001.83
2022-05-14 14:07:00,,0828.8,5.00,0.00,29.4,28.4,00.0,38.4,31.1,07.8,0000.0,0008.75,0003.34,0001.84
2022-05-14 14:08:00,,0828.6,4.99,0.00,29.4,28.4,00.0,38.4,31.1,07.8,0000.0,0008.74,0003.33,0001.84
2022-05-14 14:09:00,,0828.7,5.00,0.00,29.4,28.4,00.0,38.4,31.1,07.4,0000.0,0008.87,0003.35,0001.83
2022-05-14 14:10:00,,0828.8,4.99,0.00,29.4,28.4,00.0,38.4,31.1,07.5,0000.0,0009.56,0003.33,0001.83
2022-05-14 14:11:00,,0828.8,5.01,0.00,29.4,28.4,00.0,38.4,31.2,07.7,0000.0,0009.46,0003.33,0001.83
2022-05-14 14:12:00,,0828.7,5.00,0.00,29.4,28.4,00.0,38.4,31.2,07.6,0000.0,0009.01,0003.34,0001.82
2022-05-14 14:13:00,,0828.9,5.00,0.00,29.4,28.4,00.0,38.4,31.2,07.8,0000.0,0008.56,0003.35,0001.82
2022-05-14 14:14:00,,0828.8,4.99,0.00,29.4,28.4,00.0,38.4,31.2,07.7,0000.0,0008.68,0003.37,0001.83
2022-05-14 14:15:00,,0828.4,5.01,0.00,29.4,28.4,00.0,38.4,31.2,07.6,0000.0,0008.68,0003.37,0001.82
2022-05-14 14:16:00,,0828.4,5.00,0.00,29.4,28.5,00.0,38.4,31.1,07.7,0000.0,0008.67,0003.42,0001.84
2022-05-14 14:17:00,,0828.4,5.00,0.00,29.4,28.4,00.0,38.4,31.1,07.6,0000.0,0009.35,0003.42,0001.82
2022-05-14 14:18:00,,0828.3,4.99,0.00,29.4,28.4,00.0,38.4,31.0,07.5,0000.0,0009.20,0003.38,0001.81
2022-05-14 14:19:00,,0828.4,5.01,0.00,29.4,28.4,00.0,38.3,31.0,07.6,0000.0,0009.12,0003.36,0001.81
2022-05-14 14:20:00,,0828.4,5.01,0.00,29.3,28.4,00.0,38.3,31.0,07.7,0000.0,0008.95,0003.31,0001.81
2022-05-14 14:21:00,,0828.4,4.99,0.00,29.3,28.4,00.0,38.3,31.0,07.8,0000.0,0007.97,0003.26,0001.79
2022-05-14 14:22:00,,0828.4,5.00,0.00,29.3,28.4,00.0,38.3,31.0,07.6,0000.0,0008.03,0003.25,0001.80
2022-05-14 14:23:00,,0828.5,5.01,0.00,29.3,28.4,00.0,38.3,31.0,07.5,0000.0,0008.07,0003.21,0001.81
2022-05-14 14:24:00,,0828.4,4.99,0.00,29.4,28.4,00.0,38.3,31.0,07.7,0000.0,0007.97,0003.18,0001.80
2022-05-14 14:25:00,,0828.4,5.01,0.00,29.4,28.4,00.0,38.3,31.0,07.5,0000.0,0007.79,0003.13,0001.79
2022-05-14 14:26:00,,0828.4,5.00,0.00,29.4,28.4,00.0,38.3,31.0,07.5,0000.0,0007.92,0003.13,0001.80
2022-05-14 14:27:00,,0828.4,5.00,0.00,29.4,28.4,00.0,38.3,31.0,07.3,0000.0,0007.81,0003.07,0001.79
2022-05-14 14:28:00,,0828.4,5.00,0.00,29.4,28.4,00.0,38.3,31.1,08.2,0000.0,0007.06,0003.04,0001.76
2022-05-14 14:29:00,,0828.4,5.01,0.00,29.4,28.4,00.0,38.3,31.1,07.9,0000.0,0007.12,0003.09,0001.75
2022-05-14 14:30:00,,0828.4,5.01,0.00,29.4,28.4,00.0,38.3,31.1,07.6,0000.0,0007.24,0003.14,0001.76
2022-05-14 14:31:00,,0828.4,5.00,0.00,29.4,28.4,00.0,38.3,31.1,07.9,0000.0,0007.32,0003.14,0001.76
2022-05-14 14:32:00,,0828.4,5.00,0.00,29.4,28.4,00.0,38.3,31.0,07.7,0000.0,0007.52,0003.19,0001.77
2022-05-14 14:33:00,,0828.4,5.01,0.00,29.4,28.4,00.0,38.3,31.0,07.6,0000.0,0007.67,0003.19,0001.75
2022-05-14 14:34:00,,0828.4,5.01,0.00,29.4,28.4,00.0,38.3,31.1,07.6,0000.0,0007.69,0003.18,0001.73
2022-05-14 14:35:00,,0828.4,5.00,0.00,29.4,28.4,00.0,38.3,31.0,07.6,0000.0,0007.81,0003.21,0001.74
2022-05-14 14:36:00,,0828.4,5.01,0.00,29.4,28.4,00.0,38.3,31.0,07.7,0000.0,0007.85,0003.25,0001.74
2022-05-14 14:37:00,,0828.4,4.99,0.00,29.4,28.4,00.0,38.3,31.0,07.6,0000.0,0007.74,0003.24,0001.74
2022-05-14 14:38:00,,0828.4,5.00,0.00,29.3,28.4,00.0,38.3,31.0,07.5,0000.0,0007.63,0003.21,0001.72
2022-05-14 14:39:00,,0828.4,5.01,0.00,29.3,28.4,00.0,38.3,31.0,07.7,0000.0,0007.57,0003.21,0001.73
2022-05-14 14:40:00,,0828.4,5.00,0.00,29.4,28.4,00.0,38.3,31.0,07.7,0000.0,0007.53,0003.19,0001.73
2022-05-14 14:41:00,,0828.5,4.99,0.00,29.4,28.4,00.0,38.3,31.1,07.5,0000.0,0007.45,0003.14,0001.71
2022-05-14 14:42:00,,0828.4,5.01,0.00,29.4,28.4,00.0,38.3,31.1,08.1,0000.0,0008.32,0003.12,0001.70
2022-05-14 14:43:00,,0828.4,5.02,0.00,29.4,28.4,00.0,38.3,31.1,07.9,0000.0,0008.43,0003.07,0001.68
2022-05-14 14:44:00,,0828.5,5.00,0.00,29.4,28.5,00.0,38.3,31.1,07.5,0000.0,0008.04,0002.99,0001.66
2022-05-14 14:45:00,,0828.4,5.00,0.00,29.4,28.5,00.0,38.3,31.1,07.5,0000.0,0007.88,0002.95,0001.65
2022-05-14 14:46:00,,0828.4,5.01,0.00,29.4,28.4,00.0,38.3,31.1,07.7,0000.0,0008.27,0002.89,0001.66
2022-05-14 14:47:00,,0828.3,5.00,0.00,29.4,28.4,00.0,38.3,31.1,07.9,0000.0,0008.37,0002.85,0001.66
2022-05-14 14:48:00,,0828.3,4.99,0.00,29.4,28.4,00.0,38.3,31.0,07.6,0000.0,0008.53,0002.91,0001.66
2022-05-14 14:49:00,,0828.4,5.01,0.00,29.4,28.4,00.0,38.3,31.0,07.7,0000.0,0009.28,0002.99,0001.67
2022-05-14 14:50:00,,0828.4,5.00,0.00,29.4,28.4,00.0,38.3,31.0,08.0,0000.0,0009.28,0002.96,0001.67
2022-05-14 14:51:00,,0828.4,5.00,0.00,29.4,28.4,00.0,38.3,31.1,07.5,0000.0,0009.62,0002.96,0001.68
2022-05-14 14:52:00,,0828.4,5.00,0.00,29.4,28.5,00.0,38.3,31.1,07.7,0000.0,0009.79,0003.00,0001.69
2022-05-14 14:53:00,,0828.4,4.98,0.00,29.4,28.5,00.0,38.3,31.1,07.7,0000.0,0008.84,0003.00,0001.69
2022-05-14 14:54:00,,0828.4,5.00,0.00,29.4,28.5,00.0,38.3,31.1,07.6,0000.0,0008.61,0003.01,0001.71
2022-05-14 14:55:00,,0828.4,5.01,0.00,29.4,28.5,00.0,38.3,31.1,07.5,0000.0,0008.62,0003.09,0001.75
2022-05-14 14:56:00,,0828.4,4.99,0.00,29.4,28.4,00.0,38.3,31.1,07.5,0000.0,0008.72,0003.15,0001.77
2022-05-14 14:57:00,,0828.4,5.00,0.00,29.4,28.4,00.0,38.3,31.1,07.8,0000.0,0008.24,0003.19,0001.77
2022-05-14 14:58:00,,0828.4,5.00,0.00,29.4,28.5,00.0,38.3,31.1,07.6,0000.0,0008.01,0003.15,0001.75
2022-05-14 14:59:00,,0828.4,5.00,0.00,29.4,28.5,00.0,38.3,31.1,07.7,0000.0,0007.68,0003.05,0001.72
